CZ-6A DEB, 61468

Orbit data source: Space-Track

CZ-6A DEB, 61468 is space debris in LEO originally from a launch on Tue, 06 Aug 2024 UTC launched from the Taiyaun Space Center, China (TSC). Debris objects in space refer to the collection of defunct objects orbiting the Earth. Examples of debris include non-operational satellites, rocket bodies, and fragments generated from explosions, collisions, or faulty payload assembly.

Loading next visibility...
Identifier
61468, 2024-140AAA
Orbit
LEO
Last TLE update
19 hours ago
Origin
Manufacturer
SAST
Mission
Spacecraft
Bus & Motor
Unknown
Mass
Unknown
Launch date (UTC)
2024-08-06 (11 months ago)
Launch vehicle
Unknown
Launch site
Taiyaun Space Center, China (TSC)
Object type
Payload
Rocket body
Debris
Shape & HBR
Unknown
Radar Cross Section
Small (<0.1 m²)

Expand to show TLE details & history

TLE from 19 hours ago
0 CZ-6A DEB
1 61468U 24140AAA 25189.80452476  .00116705  00000-0  54538-2 0  9994
2 61468  89.2110 318.4051 0062401 235.1804 124.3561 15.17569258 45859
Epoch: 2025-07-08T19:18Z
TLE epoch observation values (Epoch: 2025-07-08T19:18:30.939Z)
Latitude
0.00001°
Longitude
101.78194°
Altitude
540.837 km
Speed
7.578 km/s
True Right ascension
21h 13m 37s
True Declination
0° 00' 00"
Sunlit
Object was in full shadow at epoch
Visualization orbit readout
Latitude
-38.90997°
Longitude
101.06658°
Altitude
526.752 km
Speed
7.599 km/s
Apparent Right ascension
17h 57m 59s
Apparent Declination
-52° 38' 58"
Sunlit
Object is in full shadow
Visualization observer readout
Local Sidereal Time
02:18:14
Azimuth
232.137° WSW
Elevation
-51.023°
Doppler factor
1
Orbital elements
Apogee altitude
552.984 km
Perigee altitude
467.018 km
Semi-major axis
6,888.138 km
Eccentricity
0.00624
Inclination
89.211°
RAAN
318.4051°
Arg. of periapsis
235.1804°
True anomaly
Unknown
Mean anomaly
124.3561°
Eccentric anomaly
Unknown
Mean motion
3.79656 °/min
Orbital period
94.82 mins
BSTAR
0.0054538
Loading maneuver chart data...
Loading SW <> Apogee altitude chart data...
Loading historical data...
Loading historical data...
Loading historical data...
Loading historical data...
Loading historical data...
Loading historical data...
Loading historical data...

CZ-6A DEB Visibility forecast

Observer location: undefined°, undefined°

Span
Click to sort rows by Start time (UTC) header in descending order
Start Az.
Max El. time (UTC)
Max El. Az.
Max El.
End time (UTC)
End Az.
6 mins2025-07-09 21:11:38.749Z349.95° N2025-07-09 21:14:38.749Z290.035° WNW38.449°2025-07-09 21:17:38.749Z201.014° SSW
5 mins2025-07-10 09:25:38.749Z213.775° SW2025-07-10 09:27:38.749Z266.762° W33.379°2025-07-10 09:30:38.749Z338.141° N
|